[[{"header":{"parameterUnit":"m.s-1","parameterCategory":1,"la1":30.2991,"la2":30.254,"lo1":-89.0895,"lo2":-89.0444,"dy":0.0017,"dx":0.0017,"nx":28,"ny":28,"refTime":"2023-10-14T21:00:00:Z","depth":0,"parameterNumber":2,"parameterNumberName":"U-component_of_WINDS"},"data":[0,0,0,0,0,0,0,0,0,0,0,0,0,0,0,0,0,0,0,0,0,0,0,0,0,0,0,0,0,0,0,0,0,0,0,0,0,0,0,0,0,0,0,0,0,0,0,0,0,0,0,0,0,0,0,0,0,0,1.9904,1.9904,0,1.9904,1.9904,1.9904,1.989,1.989,1.989,1.9889,1.9888,1.9889,1.9889,0,0,0,0,0,0,0,0,0,0,0,0,0,1.9892,1.9892,1.9904,1.9904,1.9904,1.9904,1.9904,1.9904,1.989,1.989,1.989,1.9889,1.9888,1.9889,1.9889,0,0,0,0,0,0,0,0,0,0,0,0,0,1.9895,1.9892,1.9904,1.9897,1.9897,1.9904,1.9904,1.9904,1.9891,1.989,1.9889,1.9889,1.9888,1.9889,1.9889,1.9903,0,0,1.989,1.9891,0,0,0,0,0,0,0,0,1.9895,1.9895,1.9898,1.9898,1.9897,1.9897,1.99,1.9904,1.9891,1.9893,1.9889,1.9889,1.9892,1.9892,1.9893,1.9903,1.9903,1.9891,1.9891,1.9891,1.9891,0,0,0,0,0,0,0,1.9895,1.9895,1.9904,1.9898,1.9898,1.9894,1.9894,1.99,1.9895,1.9893,1.9892,1.9892,1.9891,1.9892,1.9893,1.9903,1.9891,1.9891,1.9891,1.9891,1.9926,1.9926,0,0,0,0,0,0,1.9895,1.9895,1.9904,1.9904,1.9895,1.9895,1.9895,1.9897,1.9895,1.9894,1.9892,1.9891,1.9892,1.9892,1.9893,1.9909,1.9891,1.9891,1.9892,1.9925,1.9926,1.9927,0,0,0,0,0,0,1.9895,1.9896,1.9904,1.99,1.99,1.9896,1.9899,1.9898,1.9899,1.9895,1.9894,1.9895,1.9892,1.9892,1.9901,1.9909,1.9892,1.9892,1.9924,1.9925,1.9926,1.9943,0,0,0,0,0,0,1.9895,1.9896,1.9901,1.99,1.9901,1.9912,1.9899,1.9898,1.99,1.9899,1.9897,1.9896,1.9891,1.99,1.9901,1.991,1.9892,1.9924,1.9925,1.9926,1.9941,1.9944,1.9947,0,0,0,0,0,1.9895,1.9905,1.9902,1.9903,1.9907,1.9913,1.9913,1.9908,1.9901,1.9906,1.9904,1.9896,1.9908,1.9901,1.9902,1.9911,1.9923,1.9925,1.9926,1.994,1.9944,1.9946,0,0,0,0,0,0,1.9907,1.9905,1.9901,1.9912,1.9913,1.991,1.9917,1.9911,1.9914,1.9912,1.9905,1.9905,1.9915,1.9914,1.9906,1.9925,1.9915,1.9916,1.9925,1.9928,1.9931,1.993,1.9893,0,0,0,0,0,1.9912,1.9917,1.9914,1.9924,1.9925,1.9921,1.9923,1.9919,1.992,1.992,1.9918,1.9919,1.9923,1.9926,1.9929,1.9942,1.9941,1.9948,1.9951,1.9953,1.9954,1.9962,1.9965,1.9931,1.9931,1.9931,0,0,1.992,1.9919,1.9923,1.9927,1.9927,1.9933,1.9921,1.9927,1.9932,1.9921,1.9929,1.9928,1.9929,1.994,1.9944,1.9939,1.9964,1.9955,1.9956,1.9956,1.9963,1.9967,1.9969,1.9932,1.9932,1.9932,0,0,1.9938,1.9938,1.9947,1.9948,1.9949,1.9946,1.9949,1.9948,1.9947,1.9956,1.9948,1.9953,1.996,1.9961,1.9962,1.9983,1.9976,1.9985,1.9997,2.0005,2.0007,2.001,2.0017,2.002,1.9986,1.9986,1.9986,0,1.9948,1.9957,1.9952,1.9959,1.9961,1.9953,1.9962,1.9963,1.9965,1.9967,1.9961,1.9971,1.997,1.9982,1.9987,1.9988,1.9991,1.9984,2.0008,2.001,2.0012,2.0019,2.0022,1.9987,1.9987,1.9987,1.9987,0,1.9969,1.9975,1.9982,1.9985,1.9988,1.9996,1.9993,1.9997,1.9993,1.9992,2.0001,2.0001,2.0004,2.0007,2.0003,2.0019,2.0015,2.0009,1.9998,2.0016,2.0023,2.0026,1.9988,1.9988,1.9988,1.9988,0,0,1.9994,1.9996,1.9998,2.0,2.0002,2.0006,2.0014,2.0019,2.0022,2.0025,2.0031,2.0039,2.0033,2.0035,2.0031,2.0038,2.0055,2.003,2.003,2.0035,2.0073,2.0077,2.0081,2.0051,2.0052,2.0052,2.0073,0,2.0012,2.0026,2.0022,2.0036,2.0042,2.0035,2.0043,2.0045,2.0044,2.0049,2.0048,2.0053,2.0045,2.0046,2.0053,2.0051,2.0062,2.005,2.0057,2.0057,2.0057,2.0084,2.0089,2.0108,2.0075,2.0076,2.0076,0,2.0034,2.0038,2.0052,2.0054,2.0057,2.0063,2.0068,2.0073,2.0075,2.0074,2.0077,2.0073,2.0081,2.0071,2.0083,2.0075,2.0078,2.0078,2.0079,2.0079,2.0067,2.0084,2.0114,2.0117,2.008,2.008,2.0079,0,2.005,2.006,2.007,2.0072,2.0074,2.0079,2.008,2.0082,2.0085,2.009,2.0092,2.0097,2.0099,2.0103,2.0101,2.0094,2.0113,2.0103,2.0113,2.0113,2.0116,2.0116,2.0146,2.0119,2.0119,2.0119,2.0119,0,2.007,2.0079,2.0077,2.0084,2.0094,2.0091,2.0101,2.0102,2.0104,2.0111,2.0105,2.0111,2.0107,2.0113,2.0111,2.0122,2.0123,2.0123,2.0122,2.0123,2.0123,2.0124,2.0122,2.012,2.0119,2.0119,2.0119,0,2.009,2.0089,2.01,2.0102,2.0103,2.011,2.0112,2.0118,2.0118,2.0126,2.0128,2.0127,2.0134,2.0132,2.0139,2.0138,2.0151,2.0149,2.015,2.015,2.0159,2.0158,2.0191,2.0196,2.0166,2.0166,2.0166,0,2.0102,2.0109,2.0113,2.0117,2.0119,2.0126,2.0129,2.0127,2.0131,2.0136,2.0141,2.0148,2.0153,2.0165,2.0165,2.0171,2.0168,2.018,2.0169,2.017,2.0168,2.0168,2.0169,2.0181,2.0182,2.0182,2.0182,0,2.0124,2.0124,2.013,2.0136,2.0141,2.0146,2.015,2.0154,2.0152,2.0157,2.0164,2.0169,2.0177,2.0184,2.019,2.0191,2.0186,2.0186,2.0188,2.0189,2.0189,2.0189,2.0156,2.0185,2.0184,2.0184,2.0184,2.0184,2.0141,2.0147,2.0151,2.0158,2.0161,2.0166,2.0172,2.0173,2.0179,2.0186,2.0184,2.0193,2.0197,2.0204,2.0206,2.0213,2.0209,2.0213,2.0213,2.0214,2.0216,2.0189,2.0214,2.0214,2.0214,2.0214,2.0214,0,2.0162,2.0165,2.0172,2.0178,2.0184,2.0181,2.0185,2.019,2.0198,2.0202,2.0208,2.0217,2.0224,2.0226,2.0233,2.0238,2.0236,2.024,2.0239,2.024,2.0219,2.0216,2.0241,2.0241,2.0241,2.0241,2.0241,2.0241,2.0174,2.0185,2.0186,2.0199,2.0201,2.021,2.0213,2.0218,2.0221,2.0232,2.0238,2.0239,2.0242,2.025,2.0256,2.0257,2.0259,2.0264,2.0263,2.0244,2.0241,2.0238,2.0235,2.0264,2.0264,2.0283,2.0283,2.0283]},{"header":{"parameterUnit":"m.s-1","parameterCategory":1,"la1":30.2991,"la2":30.254,"lo1":-89.0895,"lo2":-89.0444,"dy":0.0017,"dx":0.0017,"nx":28,"ny":28,"refTime":"2023-10-14T21:00:00:Z","depth":0,"parameterNumber":3,"parameterNumberName":"V-component_of_WINDS"},"data":[0,0,0,0,0,0,0,0,0,0,0,0,0,0,0,0,0,0,0,0,0,0,0,0,0,0,0,0,0,0,0,0,0,0,0,0,0,0,0,0,0,0,0,0,0,0,0,0,0,0,0,0,0,0,0,0,0,0,-6.5915,-6.5916,0,-6.5995,-6.5996,-6.5997,-6.5959,-6.5957,-6.5955,-6.5953,-6.603,-6.6034,-6.6038,0,0,0,0,0,0,0,0,0,0,0,0,0,-6.5726,-6.573,-6.5915,-6.5916,-6.5917,-6.5995,-6.5996,-6.5997,-6.596,-6.5957,-6.5955,-6.5953,-6.6029,-6.6034,-6.6038,0,0,0,0,0,0,0,0,0,0,0,0,0,-6.5807,-6.5731,-6.5914,-6.5908,-6.5908,-6.5994,-6.5996,-6.5997,-6.596,-6.5957,-6.5954,-6.5951,-6.6027,-6.6033,-6.6039,-6.6135,0,0,-6.6057,-6.6059,0,0,0,0,0,0,0,0,-6.5803,-6.5814,-6.5908,-6.5908,-6.5909,-6.5964,-6.5957,-6.6043,-6.5961,-6.594,-6.5953,-6.595,-6.601,-6.6017,-6.6039,-6.6139,-6.6142,-6.6057,-6.6061,-6.6063,-6.6065,0,0,0,0,0,0,0,-6.5797,-6.5811,-6.5946,-6.5909,-6.591,-6.59,-6.5908,-6.5973,-6.5991,-6.5942,-6.5939,-6.595,-6.601,-6.6033,-6.604,-6.6143,-6.6057,-6.6062,-6.6066,-6.6068,-6.6328,-6.6331,0,0,0,0,0,0,-6.5792,-6.5806,-6.5944,-6.5949,-6.5847,-6.5905,-6.5915,-6.5949,-6.599,-6.5994,-6.5952,-6.5947,-6.6025,-6.6033,-6.6043,-6.616,-6.6063,-6.6069,-6.6072,-6.6325,-6.6329,-6.6332,0,0,0,0,0,0,-6.5788,-6.5805,-6.594,-6.5877,-6.5893,-6.5912,-6.5951,-6.5952,-6.5976,-6.5998,-6.6,-6.5973,-6.6023,-6.6035,-6.6113,-6.6162,-6.6071,-6.6077,-6.6321,-6.6326,-6.6331,-6.6393,0,0,0,0,0,0,-6.5783,-6.5804,-6.5841,-6.5878,-6.5897,-6.6011,-6.5954,-6.5956,-6.5987,-6.5981,-6.6018,-6.6021,-6.6021,-6.6105,-6.6119,-6.6168,-6.6081,-6.6316,-6.6323,-6.6329,-6.6387,-6.64,-6.6411,0,0,0,0,0,-6.5777,-6.5854,-6.5843,-6.586,-6.5944,-6.6014,-6.6024,-6.6024,-6.5991,-6.6028,-6.6043,-6.602,-6.6154,-6.6113,-6.6129,-6.6181,-6.6313,-6.6321,-6.6329,-6.6382,-6.6398,-6.6411,0,0,0,0,0,0,-6.582,-6.5859,-6.5847,-6.5939,-6.5974,-6.6007,-6.6054,-6.604,-6.6084,-6.6077,-6.6073,-6.6082,-6.6164,-6.618,-6.6133,-6.6277,-6.6228,-6.624,-6.6264,-6.6279,-6.6291,-6.6285,-6.6086,0,0,0,0,0,-6.5841,-6.5895,-6.5925,-6.6003,-6.6022,-6.6035,-6.6065,-6.6063,-6.6097,-6.6111,-6.6131,-6.6165,-6.6215,-6.6247,-6.6294,-6.6389,-6.6397,-6.6433,-6.6445,-6.6455,-6.6464,-6.6517,-6.6534,-6.6357,-6.6357,-6.6357,0,0,-6.5883,-6.5911,-6.5945,-6.6013,-6.6039,-6.6095,-6.6048,-6.6108,-6.6149,-6.612,-6.6196,-6.6213,-6.625,-6.6338,-6.6377,-6.6353,-6.6515,-6.6464,-6.6472,-6.6476,-6.6527,-6.6543,-6.6558,-6.6363,-6.6362,-6.6361,0,0,-6.5989,-6.6015,-6.6084,-6.6113,-6.6155,-6.6164,-6.618,-6.6217,-6.6227,-6.6305,-6.6284,-6.6333,-6.6418,-6.6446,-6.6472,-6.6591,-6.6573,-6.6607,-6.6669,-6.6721,-6.6735,-6.6747,-6.6791,-6.6807,-6.6616,-6.6616,-6.6616,0,-6.6036,-6.612,-6.6121,-6.6185,-6.6215,-6.6194,-6.6264,-6.6291,-6.6345,-6.6366,-6.6339,-6.6448,-6.6471,-6.6566,-6.6596,-6.6617,-6.6636,-6.6602,-6.6733,-6.6745,-6.6757,-6.6799,-6.6815,-6.662,-6.662,-6.6619,-6.6619,0,-6.6177,-6.6236,-6.6287,-6.6343,-6.6379,-6.6445,-6.6455,-6.6492,-6.6486,-6.6498,-6.6578,-6.6605,-6.6659,-6.6681,-6.6675,-6.6776,-6.676,-6.6733,-6.6685,-6.6778,-6.6817,-6.6833,-6.6626,-6.6624,-6.6623,-6.6622,0,0,-6.6311,-6.6369,-6.6387,-6.6413,-6.6459,-6.6504,-6.657,-6.6624,-6.6656,-6.6694,-6.6749,-6.6824,-6.68,-6.6829,-6.6826,-6.6872,-6.6967,-6.684,-6.684,-6.6863,-6.7081,-6.7101,-6.712,-6.6955,-6.6958,-6.696,-6.7078,0,-6.6421,-6.6538,-6.6542,-6.6648,-6.6703,-6.6685,-6.6742,-6.6776,-6.6789,-6.6837,-6.685,-6.6904,-6.6868,-6.6886,-6.693,-6.6946,-6.701,-6.6937,-6.7005,-6.7008,-6.6997,-6.714,-6.7161,-6.7271,-6.7093,-6.7096,-6.7098,0,-6.6565,-6.6611,-6.6724,-6.6765,-6.6788,-6.6839,-6.6891,-6.6937,-6.6975,-6.6981,-6.7015,-6.7007,-6.7073,-6.7023,-6.7114,-6.7064,-6.7092,-6.7105,-6.7109,-6.7115,-6.7059,-6.7151,-6.7306,-6.7323,-6.7122,-6.712,-6.7118,0,-6.6653,-6.6743,-6.6823,-6.6846,-6.6894,-6.6931,-6.6953,-6.6988,-6.7022,-6.7066,-6.7087,-6.7138,-6.7166,-6.7205,-6.721,-6.7172,-6.7302,-6.7252,-6.7309,-6.7309,-6.7337,-6.7336,-6.75,-6.7355,-6.7354,-6.7354,-6.7354,0,-6.6776,-6.6846,-6.6864,-6.6913,-6.6991,-6.6995,-6.7071,-6.709,-6.7122,-6.7174,-6.716,-6.7209,-6.7212,-6.7262,-6.7266,-6.7342,-6.7354,-6.7361,-6.7361,-6.7363,-6.7362,-6.7381,-6.7374,-6.7358,-6.7357,-6.7356,-6.7356,0,-6.6888,-6.6902,-6.6989,-6.7029,-6.704,-6.7096,-6.713,-6.7177,-6.7189,-6.7255,-6.7271,-6.729,-6.7348,-6.7358,-6.7425,-6.7428,-6.7519,-6.7511,-6.7507,-6.7506,-6.7564,-6.7559,-6.7747,-6.7772,-6.7609,-6.7611,-6.7612,0,-6.6966,-6.702,-6.7067,-6.7102,-6.7126,-6.7182,-6.7217,-6.7223,-6.7259,-6.7308,-6.7349,-6.7407,-6.7453,-6.7547,-6.7566,-6.7618,-6.7611,-6.7674,-6.7619,-6.7619,-6.7614,-6.7611,-6.7617,-6.7684,-6.7686,-6.7687,-6.7689,0,-6.7103,-6.7108,-6.716,-6.7216,-6.7258,-6.7301,-6.7342,-6.7371,-6.7382,-6.7423,-6.7484,-6.7521,-6.7591,-6.7649,-6.7701,-6.7721,-6.7707,-6.7706,-6.7722,-6.7725,-6.7721,-6.7725,-6.7537,-6.7702,-6.77,-6.7699,-6.7699,-6.7698,-6.7201,-6.7249,-6.7291,-6.7349,-6.7381,-6.742,-6.7467,-6.7487,-6.7538,-6.7598,-6.7598,-6.7665,-6.7703,-6.7772,-6.7796,-6.7848,-6.7828,-6.7851,-6.7857,-6.7863,-6.7869,-6.7712,-6.7857,-6.7857,-6.7857,-6.7856,-6.7856,0,-6.7338,-6.7365,-6.7419,-6.7478,-6.7525,-6.751,-6.7554,-6.7594,-6.7654,-6.7692,-6.7739,-6.7809,-6.7865,-6.789,-6.7945,-6.7982,-6.7977,-6.7996,-6.7994,-6.7999,-6.7884,-6.7865,-6.8,-6.8,-6.7999,-6.7999,-6.7999,-6.7999,-6.7416,-6.7497,-6.7508,-6.7605,-6.763,-6.7698,-6.7725,-6.7761,-6.7791,-6.7872,-6.792,-6.7936,-6.7969,-6.8027,-6.8077,-6.8083,-6.8104,-6.8127,-6.813,-6.8021,-6.8007,-6.7993,-6.7975,-6.8131,-6.8131,-6.8241,-6.8242,-6.8243]}]]